| time (UTC) | temp F | wind direction | speed MPH | gust MPH | rain 1hr in | rain 24hr in | rain mn in | humidity % | barometer mb |
| 20260904114824 | 72 | 22 | 0.0 | 0.0 | 0.00 | 0.00 | 0.15 | 91 | 1011.7 |
| 20260904113328 | 72 | 21 | 0.0 | 0.0 | 0.00 | 0.00 | 0.14 | 91 | 1011.8 |
| 20260904111813 | 73 | 22 | 0.0 | 0.0 | 0.00 | 0.00 | 0.13 | 91 | 1012.2 |
| 20260904110339 | 73 | 22 | 0.0 | 0.0 | 0.00 | 0.00 | 0.11 | 91 | 1012.1 |
| 20260904104825 | 73 | 21 | 0.0 | 0.0 | 0.00 | 0.00 | 0.10 | 91 | 1011.7 |
| 20260904103324 | 73 | 21 | 0.0 | 0.0 | 0.00 | 0.00 | 0.09 | 91 | 1011.5 |
| 20260904101834 | 74 | 22 | 0.0 | 0.0 | 0.00 | 0.00 | 0.08 | 91 | 1011.0 |
| 20260904100317 | 74 | 22 | 0.0 | 0.0 | 0.00 | 0.00 | 0.07 | 90 | 1011.0 |
| 20260904094826 | 74 | 21 | 0.0 | 0.0 | 0.00 | 0.00 | 0.06 | 90 | 1011.2 |
| 20260904093331 | 74 | 22 | 0.0 | 0.0 | 0.00 | 0.00 | 0.05 | 89 | 1010.5 |
| 20260904091832 | 74 | 22 | 0.0 | 0.0 | 0.00 | 0.00 | 0.04 | 89 | 1009.9 |
| 20260904090319 | 74 | 22 | 0.0 | 0.0 | 0.00 | 0.00 | 0.03 | 89 | 1009.8 |
| 20260904084825 | 74 | 21 | 0.0 | 0.0 | 0.00 | 0.00 | 0.03 | 88 | 1010.0 |
| 20260904083349 | 75 | 21 | 0.0 | 0.0 | 0.00 | 0.00 | 0.03 | 89 | 1010.0 |
| 20260904081814 | 75 | 22 | 0.0 | 0.0 | 0.00 | 0.00 | 0.03 | 89 | 1009.5 |
| 20260904080320 | 75 | 22 | 0.0 | 0.0 | 0.00 | 0.00 | 0.02 | 88 | 1010.2 |
| 20260904074827 | 75 | 22 | 0.0 | 0.0 | 0.00 | 0.00 | 0.02 | 88 | 1010.2 |
| 20260904073351 | 76 | 22 | 0.0 | 0.0 | 0.00 | 0.00 | 0.02 | 88 | 1009.6 |
| 20260904071830 | 76 | 22 | 0.0 | 0.0 | 0.00 | 0.00 | 0.02 | 88 | 1009.9 |
| 20260904070314 | 76 | 22 | 0.0 | 0.0 | 0.00 | 0.00 | 0.02 | 87 | 1009.9 |
| 20260904064821 | 76 | 22 | 0.0 | 0.0 | 0.00 | 0.00 | 0.01 | 86 | 1010.1 |
| 20260904063319 | 76 | 21 | 0.0 | 0.0 | 0.00 | 0.00 | 0.01 | 86 | 1010.4 |
| 20260904061826 | 76 | 22 | 0.0 | 0.0 | 0.00 | 0.00 | 0.00 | 86 | 1010.2 |
| 20260904060349 | 76 | 22 | 0.0 | 0.0 | 0.00 | 0.00 | 0.00 | 85 | 1009.8 |
| 20260904054840 | 77 | 22 | 0.0 | 0.0 | 0.00 | 0.00 | 0.00 | 85 | 1009.5 |
| 20260904053337 | 76 | 22 | 0.0 | 0.0 | 0.00 | 0.00 | 0.00 | 85 | 1010.0 |
| 20260904051851 | 77 | 22 | 0.0 | 0.0 | 0.00 | 0.00 | 0.00 | 86 | 1009.9 |
| 20260904050328 | 77 | 22 | 0.0 | 0.0 | 0.00 | 0.00 | 0.00 | 86 | 1010.0 |
| 20260904044814 | 77 | 21 | 0.0 | 0.0 | 0.00 | 0.00 | 0.00 | 86 | 1010.0 |
| 20260904043323 | 77 | 21 | 0.0 | 0.0 | 0.00 | 0.00 | 0.00 | 85 | 1009.5 |
| 20260904041831 | 77 | 21 | 0.0 | 0.0 | 0.00 | 0.00 | 0.00 | 85 | 1009.2 |
| 20260904040335 | 77 | 22 | 0.0 | 0.0 | 0.00 | 0.00 | 0.00 | 84 | 1009.4 |
| 20260904034834 | 77 | 21 | 0.0 | 0.0 | 0.00 | 0.00 | 0.00 | 84 | 1009.7 |
| 20260904033318 | 77 | 22 | 0.0 | 0.0 | 0.00 | 0.00 | 0.00 | 84 | 1009.8 |
| 20260904031814 | 77 | 22 | 0.0 | 0.0 | 0.00 | 0.00 | 0.00 | 84 | 1010.1 |
| 20260904030318 | 77 | 21 | 0.0 | 0.0 | 0.00 | 0.00 | 0.00 | 84 | 1010.3 |
| 20260904024831 | 77 | 22 | 0.0 | 0.0 | 0.00 | 0.00 | 0.00 | 85 | 1009.9 |
| 20260904023330 | 76 | 22 | 0.0 | 0.0 | 0.00 | 0.00 | 0.00 | 86 | 1009.9 |
| 20260904021816 | 75 | 22 | 0.0 | 0.0 | 0.00 | 0.00 | 0.00 | 87 | 1010.1 |
| 20260904020342 | 75 | 21 | 0.0 | 0.0 | 0.00 | 0.00 | 0.00 | 87 | 1010.4 |
| 20260904014830 | 75 | 21 | 0.0 | 0.0 | 0.00 | 0.00 | 0.00 | 87 | 1010.8 |
| 20260904013331 | 75 | 22 | 0.0 | 0.0 | 0.00 | 0.00 | 0.00 | 87 | 1011.2 |
| 20260904011831 | 75 | 22 | 0.0 | 0.0 | 0.00 | 0.00 | 0.00 | 86 | 1011.1 |
| 20260904010316 | 75 | 22 | 0.0 | 0.0 | 0.00 | 0.00 | 0.00 | 86 | 1011.3 |
| 20260904004828 | 76 | 22 | 0.0 | 0.0 | 0.00 | 0.00 | 0.00 | 85 | 1011.1 |
| 20260904003332 | 76 | 21 | 0.0 | 0.0 | 0.00 | 0.00 | 0.00 | 84 | 1011.6 |
| 20260904001812 | 76 | 22 | 0.0 | 0.0 | 0.00 | 0.00 | 0.00 | 85 | 1011.5 |
| 20260904000319 | 76 | 22 | 0.0 | 0.0 | 0.00 | 0.00 | 0.00 | 86 | 1011.3 |
| 20260903234848 | 75 | 22 | 0.0 | 0.0 | 0.00 | 0.00 | 0.00 | 85 | 1010.9 |
| 20260903233312 | 75 | 21 | 0.0 | 0.0 | 0.00 | 0.00 | 0.00 | 85 | 1010.9 |
| 20260903231814 | 75 | 22 | 0.0 | 0.0 | 0.00 | 0.00 | 0.00 | 85 | 1011.0 |
| 20260903230324 | 75 | 22 | 0.0 | 0.0 | 0.00 | 0.00 | 0.00 | 86 | 1011.0 |
| 20260903224829 | 75 | 22 | 0.0 | 0.0 | 0.00 | 0.00 | 0.00 | 87 | 1010.9 |
| 20260903223336 | 75 | 21 | 0.0 | 0.0 | 0.00 | 0.00 | 0.00 | 87 | 1010.8 |
| 20260903221816 | 75 | 22 | 0.0 | 0.0 | 0.00 | 0.00 | 0.00 | 87 | 1010.9 |
| 20260903220321 | 75 | 21 | 0.0 | 0.0 | 0.00 | 0.00 | 0.00 | 87 | 1011.0 |
| 20260903214830 | 75 | 21 | 0.0 | 0.0 | 0.00 | 0.00 | 0.00 | 87 | 1010.9 |
| 20260903213327 | 75 | 21 | 0.0 | 0.0 | 0.00 | 0.00 | 0.00 | 87 | 1011.0 |
| 20260903211816 | 75 | 21 | 0.0 | 0.0 | 0.00 | 0.00 | 0.00 | 87 | 1010.4 |
| 20260903210320 | 75 | 22 | 0.0 | 0.0 | 0.00 | 0.00 | 0.00 | 87 | 1010.0 |
| 20260903204827 | 75 | 22 | 0.0 | 0.0 | 0.00 | 0.00 | 0.00 | 87 | 1010.0 |
| 20260903203331 | 75 | 21 | 0.0 | 0.0 | 0.00 | 0.00 | 0.00 | 87 | 1009.6 |
| 20260903201818 | 75 | 21 | 0.0 | 0.0 | 0.00 | 0.00 | 0.00 | 86 | 1009.7 |
| 20260903200325 | 75 | 21 | 0.0 | 0.0 | 0.00 | 0.00 | 0.00 | 86 | 1009.5 |
| 20260903194829 | 75 | 22 | 0.0 | 0.0 | 0.00 | 0.00 | 0.00 | 86 | 1009.2 |
| 20260903193332 | 75 | 22 | 0.0 | 0.0 | 0.00 | 0.00 | 0.00 | 85 | 1009.0 |
| 20260903191834 | 75 | 22 | 0.0 | 0.0 | 0.00 | 0.00 | 0.00 | 85 | 1009.1 |
| 20260903190312 | 75 | 22 | 0.0 | 0.0 | 0.00 | 0.00 | 0.00 | 85 | 1008.8 |
| 20260903184825 | 76 | 22 | 0.0 | 0.0 | 0.00 | 0.00 | 0.00 | 85 | 1008.2 |
| 20260903183329 | 76 | 22 | 0.0 | 0.0 | 0.00 | 0.00 | 0.00 | 85 | 1008.4 |
| 20260903181836 | 76 | 22 | 0.0 | 0.0 | 0.00 | 0.00 | 0.00 | 85 | 1008.6 |
| 20260903180315 | 76 | 22 | 0.0 | 0.0 | 0.00 | 0.00 | 0.00 | 85 | 1008.5 |
| 20260903174822 | 76 | 22 | 0.0 | 0.0 | 0.00 | 0.00 | 0.00 | 84 | 1008.3 |
| 20260903173347 | 76 | 21 | 0.0 | 0.0 | 0.00 | 0.00 | 0.00 | 83 | 1008.1 |
| 20260903171814 | 76 | 21 | 0.0 | 0.0 | 0.00 | 0.00 | 0.00 | 83 | 1008.2 |
| 20260903170318 | 77 | 22 | 0.0 | 0.0 | 0.00 | 0.00 | 0.00 | 82 | 1008.1 |
| 20260903164825 | 77 | 22 | 0.0 | 0.0 | 0.00 | 0.00 | 0.00 | 80 | 1008.1 |
| 20260903163329 | 77 | 22 | 0.0 | 0.0 | 0.00 | 0.00 | 0.00 | 79 | 1008.3 |
| 20260903161837 | 77 | 21 | 0.0 | 0.0 | 0.00 | 0.00 | 0.00 | 78 | 1008.2 |
| 20260903160325 | 78 | 21 | 0.0 | 0.0 | 0.00 | 0.00 | 0.00 | 78 | 1008.2 |
| 20260903154830 | 78 | 21 | 0.0 | 0.0 | 0.00 | 0.00 | 0.00 | 77 | 1008.4 |
| 20260903153336 | 78 | 22 | 0.0 | 0.0 | 0.00 | 0.00 | 0.00 | 76 | 1008.3 |
| 20260903151817 | 78 | 22 | 0.0 | 0.0 | 0.00 | 0.00 | 0.00 | 76 | 1008.3 |
| 20260903150321 | 77 | 22 | 0.0 | 0.0 | 0.00 | 0.00 | 0.00 | 76 | 1008.0 |
| 20260903144825 | 77 | 21 | 0.0 | 0.0 | 0.00 | 0.00 | 0.00 | 75 | 1007.9 |
| 20260903143328 | 77 | 22 | 0.0 | 0.0 | 0.00 | 0.00 | 0.00 | 75 | 1008.0 |
| 20260903141835 | 77 | 22 | 0.0 | 0.0 | 0.00 | 0.00 | 0.00 | 76 | 1008.3 |
| 20260903140314 | 77 | 22 | 0.0 | 0.0 | 0.00 | 0.00 | 0.00 | 76 | 1008.4 |
| 20260903134822 | 77 | 22 | 0.0 | 0.0 | 0.00 | 0.00 | 0.00 | 77 | 1008.3 |
| 20260903133329 | 77 | 22 | 0.0 | 0.0 | 0.00 | 0.00 | 0.00 | 76 | 1008.5 |
| 20260903131836 | 77 | 22 | 0.0 | 0.0 | 0.00 | 0.00 | 0.00 | 77 | 1008.9 |
| 20260903130318 | 77 | 22 | 0.0 | 0.0 | 0.00 | 0.00 | 0.00 | 77 | 1009.5 |
| 20260903124823 | 77 | 22 | 0.0 | 0.0 | 0.00 | 0.00 | 0.00 | 76 | 1009.9 |
| 20260903123347 | 77 | 21 | 0.0 | 0.0 | 0.00 | 0.00 | 0.00 | 76 | 1010.0 |
| 20260903121819 | 77 | 22 | 0.0 | 0.0 | 0.00 | 0.00 | 0.00 | 76 | 1010.2 |
| 20260903120323 | 77 | 22 | 0.0 | 0.0 | 0.00 | 0.00 | 0.00 | 76 | 1010.5 |